Main page
METAR-TAF:

METAR-TAF

Airports :

Midland Airpark

Midland, Texas, United States

latitude: 32-02-11N, longitude: 102-06-03W, elevation: 2801 ft

Current weather observation

The report was made 10 minutes ago, at 03:15 UTC
Wind 7 mph from the Southeast
Temperature 88°F
Humidity 46%
Pressure 29.99 in. Hg
Visibility: 10 miles
thunderstorm in vicinity

METAR: KMDD 200315Z AUTO 13006KT 10SM VCTS 31/18 A2999 RMK AO2 LTG DSNT N AND NE T03120175

Time: 22:25 (03:25 UTC)


TAF: missing

Weather observations and forecasts of more than 4000 airports (METAR and TAF reports).

The available stations are represented by yellow and red dots on the map.

Hover mouse over dot to see the name of the station.

Then click to see weather observations and forecasts.

To change the map : click on the green buttons with a black cross to zoom in, on the green button with a dash to zoom out, or on the green arrows for adjacent maps.


METAR-TAF: